Flughafen Wetterinformationen

LTBA 190220Z 36012KT 9999 SCT015 BKN025 08/05 Q1022 NOSIG

VATSIM Feed

Card image cap

ATC Buchungen

Es wurde keine Position gebucht

Card image cap

Aktive Flugsicherung

Derzeit sind keine Fluglotsen Online

Blog

Read our latest news and get to know us better.